Voltar ao catálogo

THORAD AGENA D DEB

AtivoLEO
NORAD 4934·DEBRIS·🇺🇸 United States

Lançado Apr 8, 1970 de Vandenberg Space Force Base

Loading…

Próximas Passagens (próximas 24 horas)

TLE

AtualizadoSource: Space-Track

Época: Sep 14, 2026, 07:59 UTC

1 04934U 70025GA  26257.33292179  .00000395  00000-0  46174-3 0  9994
2 04934 100.0310  27.7398 0005192 317.4266  70.6979 13.75518335808633

Acompanhe THORAD AGENA D DEB em tempo real com AllMySat

Download on the App Store